Regional Weather Roundup
Issued by NWS

Home | Current Version | Previous Version | Text Only | Print | Product List | Glossary Off
Versions: 1 2 3 4 5 6 7 8 9 10 11 12 13 14 15 16 17 18 19 20 21 22 23 24 25 26 27 28 29 30 31 32 33 34 35 36 37 38 39 40 41 42 43 44 45 46 47 48 49 50

000
ASUS45 KTFX 290704
RWRMT
MONTANA HOURLY WEATHER ROUNDUP
NATIONAL WEATHER SERVICE GREAT FALLS MT
104 AM MDT TUE JUL 29 2014

NOTE: "FAIR" INDICATES FEW OR NO CLOUDS BELOW 12000 FEET WITH NO
SIGNIFICANT WEATHER AND/OR OBSTRUCTIONS TO VISIBILITY.

* THESE STATIONS ARE NOT UNDER NWS QUALITY CONTROL. THEY DO NOT
   REPORT WEATHER SUCH AS PRECIPITATION OR FOG.

MTZ001>007-043-290800-
WEST OF THE DIVIDE
CITY           SKY/WX    TMP DP  RH WIND       PRES   REMARKS
KALISPELL      CLEAR     54  50  86 CALM      30.13R
MISSOULA       PTCLDY    70  39  32 CALM      30.15R
BUTTE          PTCLDY    59  43  56 CALM      30.30R
MULLAN PASS    CLEAR     70  34  27 CALM      30.33S
* LINCOLN      N/A       58  49  72 S2         N/A
* LOOKOUT PASS N/A       65  43  45 N/A        N/A
* POLSON       N/A       69  41  36 NE1        N/A
* RONAN APT    PTCLDY    61  50  67 N/A        N/A
* SEELEY LAKE  N/A       57  45  64 NE3        N/A
* THOMP F APT  CLEAR     61  47  60 N12G17     N/A
* YAAK HILL    N/A       65  46  50 E2         N/A
$$

MTZ008-052>055-290800-
SOUTHWEST MONTANA
CITY           SKY/WX    TMP DP  RH WIND       PRES   REMARKS
BOZEMAN        PTCLDY    63  46  54 S3        30.22R
DILLON         PTCLDY    57  43  60 SE8       30.28R
W YELLOWSTONE  CLOUDY    61  48  62 SE6       30.42R
* THREE FORKS  PTCLDY    70  48  46 SE5        N/A
* BOULDER HILL N/A       65  37  36 SW2        N/A
* MONIDA PASS  N/A       58  47  67 SE6        N/A
* RAYNOLDS PAS N/A       61  50  67 S4         N/A
* WHITEHALL    N/A       65  44  47 N5         N/A
* WISE RIVER   N/A       59  40  50 W2G8       N/A
$$

MTZ009>010-012-014-046-048-049-054-290800-
EAST SLOPES AND CENTRAL MONTANA
CITY           SKY/WX    TMP DP  RH WIND       PRES   REMARKS
CUT BANK       CLEAR     68  45  44 CALM      30.23R
GREAT FALLS    MOCLDY    70  48  46 SE3       30.18R
HELENA         CLEAR     73  41  32 W9        30.18R
* CONRAD       CLEAR     63  52  68 N/A        N/A
* DEARBORN     N/A       63  46  54 S1         N/A
* EAST GLACIER N/A       58  48  70 VRB3       N/A
* ROGERS PASS  N/A       66  38  36 NW2        N/A
* SAINT MARY   N/A       52  49  90 SE3        N/A
* SWEET GRASS  N/A       68  43  40 E2G8       N/A
$$

MTZ011-013-016-021-035-040-045-047-050-051-290800-
NORTH CENTRAL MONTANA
CITY           SKY/WX    TMP DP  RH WIND       PRES   REMARKS
HAVRE          MOCLDY    75  46  36 S8        30.14F
LEWISTOWN      CLOUDY    73  43  34 E12       30.25R
* CHESTER      N/A       69  50  51 SE8G14     N/A
* DENTON       N/A       69  47  46 N/A        N/A
* GEYSER       N/A       67  52  59 E11G17     N/A
* JUDITH GAP   N/A       71  42  35 E17G29     N/A
* LOMA         N/A       74  47  38 NE12       N/A
$$

MTZ017>020-022>027-061-062-290800-
NORTHEAST MONTANA
CITY           SKY/WX    TMP DP  RH WIND       PRES   REMARKS
GLASGOW        CLEAR     64  46  52 E9        30.20R
GLENDIVE       CLEAR     64  52  65 S7        30.24S
JORDAN         PTCLDY    61  45  56 CALM      30.20S
SIDNEY         CLEAR     59  52  78 CALM      30.23S
WOLF POINT     CLEAR     63  48  58 NE3       30.21R
* BEAVER HILL  N/A       62  52  70 SE13       N/A
* CIRCLE       N/A       65  49  56 N/A        N/A
* LINDSAY DVD  N/A       61  49  65 E2         N/A
$$

MTZ028>042-056>058-290800-
SOUTHCENTRAL AND SOUTHEAST MONTANA
CITY           SKY/WX    TMP DP  RH WIND       PRES   REMARKS
BAKER          CLEAR     57  52  83 SE5       30.26S
BILLINGS       CLOUDY    73  46  38 N5        30.20S
LIVINGSTON     PTCLDY    70  43  38 S6        30.23R
MILES CITY     PTCLDY    72  54  53 SE9       30.21R
* LAUREL APT   CLOUDY    75  45  34 N/A        N/A
* ROUNDUP APT  MOCLDY    73  39  29 NE6        N/A
* ALZADA       N/A       64  51  63 E11        N/A
* HYSHAM       N/A       73  44  35 E12G17     N/A
* LAME DEER    N/A       66  51  59 E10        N/A
* REED POINT   N/A       72  46  40 E4         N/A
* ROSCOE HILL  N/A       70  43  38 S14G19     N/A
$$

REGIONAL REPORTS...DAKOTAS
CITY           SKY/WX    TMP DP  RH WIND       PRES   REMARKS
WILLISTON      CLEAR     57  54  90 N3        30.22S
DICKINSON      CLEAR     55  50  83 S8        30.24S
CROSBY         N/A       57  57 100 SW6       30.23S
TIOGA          FAIR      55  55 100 CALM      30.27S
WATFORD CITY   CLEAR     54  52  93 CALM      30.22S
BISMARCK       CLEAR     54  52  93 NE3       30.24S
GRAND FORKS    CLEAR     55  54  96 W7        30.18S
FARGO          CLEAR     54  50  86 W3        30.19R
BUFFALO SD     MOCLDY    61  52  72 E6        30.21S
RAPID CITY     PTCLDY    57  50  78 CALM      30.28S
$$

REGIONAL REPORTS...WYOMING/IDAHO/WASHINGTON
CITY           SKY/WX    TMP DP  RH WIND       PRES   REMARKS
GILLETTE       MOCLDY    70  52  53 SE10      30.27R
SHERIDAN       CLOUDY    72  48  43 E5        30.23S
YELLOWSTONE LA CLOUDY    57  45  64 VRB5      30.51S
SALMON         PTCLDY    64  48  56 CALM      30.19S
MULLAN PASS    CLEAR     70  34  27 CALM      30.33S
SAND POINT     CLEAR     61  52  72 CALM      30.07S
SPOKANE        CLEAR     75  43  32 W9        30.06R

$$




USA.gov is the U.S. government's official web portal to all federal, state and local government web resources and services.